Weather History for KHYX - May, 2013

Change the Weather History Date:

Friday, May 24, 2013

  Actual Average (KMBS) Record (KMBS)
Temperature  
Mean Temperature 46 °F 60 °F  
Max Temperature 55 °F 71 °F 88 °F (2007)
Min Temperature 37 °F 49 °F 37 °F (2013)
Degree Days  
Heating Degree Days 19    
Month to date heating degree days  
Since 1 July heating degree days  
Cooling Degree Days 0    
Month to date cooling degree days  
Year to date cooling degree days  
Moisture  
Dew Point 37 °F    
Average Humidity 73    
Maximum Humidity 87    
Minimum Humidity 54    
Precipitation  
Precipitation 0.00 in 0.11 in 2.49 in (1997)
Month to date precipitation 2.66  
Year to date precipitation 10.93  
Snow  
Snow 0.00 in - - ()
Month to date snowfall  
Since 1 July snowfall  
Snow Depth -    
Sea Level Pressure  
Sea Level Pressure 30.30 in    
Wind  
Wind Speed 9 mph (North)    
Max Wind Speed 14 mph    
Max Gust Speed 20 mph    
Visibility 10 miles    
Events      
T = Trace of Precipitation, MM = Missing Value Source: NWS Daily Summary

Daily Weather History Graph

Daily Weather History Graph

Search for Another Location

Airport or City:

Trip Planner

Search our weather history database for the weather conditions in past years. The results will help you decide how hot, cold, wet, or windy it might be!

Date:

Astronomy

May. 24, 2013 Rise Set
Actual Time 6:02 AM EDT 9:02 PM EDT
Civil Twilight 5:28 AM EDT 9:36 PM EDT
Nautical Twilight 4:45 AM EDT 10:20 PM EDT
Astronomical Twilight 3:53 AM EDT 11:12 PM EDT
Moon 8:42 PM EDT (5/24) 5:35 AM EDT (5/24)
Length of Visible Light 16h 08m
Length of Day
15h 00m
Full, 100% of the Moon is Illuminated
May 24
Full
May 25
Full
May 31
Last Quarter
Jun 8
New
Jun 16
First Quarter

Hourly Weather History & Observations

Time (EDT) Temp. Windchill Dew Point Humidity Pressure Visibility Wind Dir Wind Speed Gust Speed Precip Events Conditions
12:13 AM 46.4 °F 42.4 °F 41.0 °F 81% 30.16 in 10.0 mi NNW 8.1 mph - N/A   Overcast
12:33 AM 46.4 °F 40.7 °F 41.0 °F 81% 30.17 in 10.0 mi NNW 12.7 mph 16.1 mph N/A   Overcast
12:53 AM 46.4 °F 40.4 °F 41.0 °F 81% 30.17 in 10.0 mi NNW 13.8 mph 19.6 mph N/A   Overcast
1:11 AM 44.6 °F 39.2 °F 41.0 °F 87% 30.18 in 10.0 mi NNW 10.4 mph - N/A   Overcast
1:31 AM 44.6 °F 39.7 °F 41.0 °F 87% 30.18 in 10.0 mi NNW 9.2 mph - N/A   Overcast
1:51 AM 44.6 °F 38.1 °F 41.0 °F 87% 30.19 in 10.0 mi NNW 13.8 mph - N/A   Overcast
2:11 AM 44.6 °F 38.8 °F 41.0 °F 87% 30.19 in 10.0 mi NNW 11.5 mph - N/A   Overcast
2:33 AM 44.6 °F 38.8 °F 41.0 °F 87% 30.20 in 10.0 mi NNE 11.5 mph - N/A   Overcast
2:53 AM 44.6 °F 38.8 °F 37.4 °F 76% 30.21 in 10.0 mi NNE 11.5 mph 17.3 mph N/A   Overcast
3:13 AM 42.8 °F 36.2 °F 37.4 °F 81% 30.21 in 10.0 mi NNE 12.7 mph 18.4 mph N/A   Overcast
3:33 AM 42.8 °F 35.8 °F 37.4 °F 81% 30.22 in 10.0 mi NNE 13.8 mph 18.4 mph N/A   Overcast
3:53 AM 42.8 °F 37.0 °F 35.6 °F 76% 30.23 in 10.0 mi North 10.4 mph 18.4 mph N/A   Mostly Cloudy
4:13 AM 41.0 °F 33.5 °F 33.8 °F 76% 30.24 in 10.0 mi North 13.8 mph - N/A   Scattered Clouds
4:33 AM 41.0 °F 33.5 °F 33.8 °F 76% 30.24 in 10.0 mi North 13.8 mph - N/A   Clear
4:54 AM 41.0 °F 34.3 °F 33.8 °F 76% 30.25 in 10.0 mi North 11.5 mph - N/A   Clear
5:14 AM 39.2 °F 31.2 °F 33.8 °F 81% 30.25 in 10.0 mi North 13.8 mph 17.3 mph N/A   Clear
5:34 AM 39.2 °F 33.0 °F 33.8 °F 81% 30.26 in 10.0 mi North 9.2 mph - N/A   Clear
5:54 AM 39.2 °F 33.6 °F 33.8 °F 81% 30.26 in 10.0 mi North 8.1 mph - N/A   Clear
6:14 AM 39.2 °F 33.6 °F 33.8 °F 81% 30.27 in 10.0 mi North 8.1 mph - N/A   Scattered Clouds
6:34 AM 39.2 °F 34.2 °F 33.8 °F 81% 30.28 in 10.0 mi NNW 6.9 mph - N/A   Mostly Cloudy
6:54 AM 37.4 °F 30.8 °F 33.8 °F 87% 30.28 in 10.0 mi NNW 9.2 mph - N/A   Scattered Clouds
7:15 AM 39.2 °F 33.6 °F 35.6 °F 87% 30.29 in 10.0 mi NNW 8.1 mph - N/A   Scattered Clouds
7:35 AM 41.0 °F 37.1 °F 35.6 °F 81% 30.29 in 10.0 mi NNW 5.8 mph - N/A   Clear
7:55 AM 42.8 °F 38.0 °F 33.8 °F 70% 30.30 in 10.0 mi North 8.1 mph - N/A   Scattered Clouds
8:15 AM 41.0 °F 35.8 °F 33.8 °F 76% 30.31 in 10.0 mi North 8.1 mph 17.3 mph N/A   Mostly Cloudy
8:35 AM 41.0 °F 36.4 °F 35.6 °F 81% 30.32 in 10.0 mi North 6.9 mph - N/A   Overcast
8:55 AM 42.8 °F 37.0 °F 35.6 °F 76% 30.33 in 10.0 mi North 10.4 mph - N/A   Overcast
9:10 AM 42.8 °F 36.6 °F 33.8 °F 70% 30.33 in 10.0 mi North 11.5 mph - N/A   Overcast
9:30 AM 42.8 °F 36.6 °F 33.8 °F 70% 30.34 in 10.0 mi North 11.5 mph - N/A   Overcast
9:51 AM 42.8 °F 36.6 °F 35.6 °F 76% 30.34 in 10.0 mi NNW 11.5 mph 17.3 mph N/A   Overcast
10:11 AM 42.8 °F 38.6 °F 33.8 °F 70% 30.35 in 10.0 mi North 6.9 mph - N/A   Overcast
10:31 AM 42.8 °F 36.2 °F 33.8 °F 70% 30.36 in 10.0 mi North 12.7 mph - N/A   Overcast
10:51 AM 42.8 °F 37.0 °F 33.8 °F 70% 30.36 in 10.0 mi North 10.4 mph 17.3 mph N/A   Overcast
11:11 AM 42.8 °F 38.6 °F 33.8 °F 70% 30.36 in 10.0 mi North 6.9 mph - N/A   Overcast
11:31 AM 44.6 °F 40.2 °F 33.8 °F 66% 30.37 in 10.0 mi North 8.1 mph - N/A   Overcast
11:51 AM 44.6 °F 40.7 °F 33.8 °F 66% 30.37 in 10.0 mi North 6.9 mph - N/A   Overcast
12:11 PM 44.6 °F 40.2 °F 35.6 °F 71% 30.37 in 10.0 mi North 8.1 mph - N/A   Overcast
12:31 PM 44.6 °F 40.2 °F 33.8 °F 66% 30.37 in 10.0 mi NNE 8.1 mph - N/A   Overcast
12:52 PM 46.4 °F 44.3 °F 35.6 °F 66% 30.37 in 10.0 mi North 4.6 mph - N/A   Mostly Cloudy
1:12 PM 46.4 °F 43.5 °F 35.6 °F 66% 30.37 in 10.0 mi North 5.8 mph - N/A   Mostly Cloudy
1:32 PM 46.4 °F 42.4 °F 35.6 °F 66% 30.38 in 10.0 mi NNE 8.1 mph - N/A   Scattered Clouds
1:52 PM 48.2 °F - 35.6 °F 62% 30.38 in 10.0 mi WNW 6.9 mph - N/A   Mostly Cloudy
2:12 PM 46.4 °F - 33.8 °F 62% 30.38 in 10.0 mi Calm Calm - N/A   Mostly Cloudy
2:32 PM 50.0 °F - 35.6 °F 58% 30.37 in 10.0 mi NNW 5.8 mph - N/A   Scattered Clouds
2:52 PM 50.0 °F - 35.6 °F 58% 30.36 in 10.0 mi Calm Calm - N/A   Scattered Clouds
3:12 PM 51.8 °F - 35.6 °F 54% 30.36 in 10.0 mi North 3.5 mph - N/A   Scattered Clouds
3:32 PM 53.6 °F - 37.4 °F 54% 30.35 in 10.0 mi WNW 4.6 mph - N/A   Scattered Clouds
3:52 PM 53.6 °F - 37.4 °F 54% 30.35 in 10.0 mi North 5.8 mph - N/A   Scattered Clouds
4:12 PM 53.6 °F - 41.0 °F 62% 30.35 in 10.0 mi North 3.5 mph - N/A   Scattered Clouds
4:32 PM 53.6 °F - 41.0 °F 62% 30.35 in 10.0 mi NE 6.9 mph - N/A   Scattered Clouds
4:52 PM 53.6 °F - 42.8 °F 67% 30.34 in 10.0 mi ENE 6.9 mph - N/A   Clear
5:13 PM 53.6 °F - 41.0 °F 62% 30.34 in 10.0 mi East 4.6 mph - N/A   Clear
5:33 PM 53.6 °F - 39.2 °F 58% 30.33 in 10.0 mi Calm Calm - N/A   Clear
5:53 PM 53.6 °F - 41.0 °F 62% 30.33 in 10.0 mi Calm Calm - N/A   Clear
6:13 PM 53.6 °F - 41.0 °F 62% 30.32 in 10.0 mi Calm Calm - N/A   Clear
6:33 PM 55.4 °F - 39.2 °F 54% 30.31 in 10.0 mi Calm Calm - N/A   Clear
6:53 PM 55.4 °F - 39.2 °F 54% 30.31 in 10.0 mi Calm Calm - N/A   Clear
7:13 PM 55.4 °F - 39.2 °F 54% 30.30 in 10.0 mi Calm Calm - N/A   Clear
7:33 PM 55.4 °F - 41.0 °F 58% 30.30 in 10.0 mi Calm Calm - N/A   Clear
7:54 PM 53.6 °F - 42.8 °F 67% 30.29 in 10.0 mi NE 4.6 mph - N/A   Clear
8:14 PM 53.6 °F - 42.8 °F 67% 30.30 in 10.0 mi NE 5.8 mph - N/A   Clear
8:34 PM 51.8 °F - 42.8 °F 71% 30.30 in 10.0 mi NE 6.9 mph - N/A   Clear
8:54 PM 50.0 °F - 42.8 °F 76% 30.30 in 10.0 mi NE 6.9 mph - N/A   Clear
9:14 PM 48.2 °F - 42.8 °F 82% 30.30 in 10.0 mi ENE 8.1 mph - N/A   Clear
9:34 PM 46.4 °F 41.9 °F 42.8 °F 87% 30.30 in 10.0 mi ENE 9.2 mph - N/A   Clear
9:54 PM 46.4 °F 42.4 °F 41.0 °F 81% 30.31 in 10.0 mi ENE 8.1 mph - N/A   Clear
10:15 PM 44.6 °F 40.7 °F 41.0 °F 87% 30.32 in 10.0 mi ENE 6.9 mph - N/A   Clear
10:35 PM 44.6 °F 40.2 °F 39.2 °F 81% 30.32 in 10.0 mi East 8.1 mph - N/A   Clear
10:55 PM 42.8 °F 41.1 °F 39.2 °F 87% 30.34 in 10.0 mi East 3.5 mph - N/A   Clear
11:15 PM 42.8 °F 41.1 °F 37.4 °F 81% 30.34 in 10.0 mi East 3.5 mph - N/A   Clear
11:35 PM 42.8 °F - 37.4 °F 81% 30.34 in 10.0 mi Calm Calm - N/A   Clear
11:55 PM 42.8 °F - 37.4 °F 81% 30.35 in 10.0 mi Calm Calm - N/A   Clear